一网星座-0335星 (ONEWEB-0335 )

导读

ONEWEB-0335是英国OneWeb卫星互联网星座的组网卫星,于2021年9月14日发射,归属英国(发射国家代码GB)。OneWeb星座计划构建全球低轨宽带通信网络,该卫星运行于约1200公里低地球轨道,单星重量约147kg,采用Ku波段通信技术,依托全球信关站提供服务,助力OneWeb完成初期星座部署,为全球用户提供高速低延迟的卫星互联网接入服务,是OneWeb星座组网的重要组成部分,也成为星链在欧洲市场的主要竞争力量。

基本信息
目录编号:
49201
目录名称:
ONEWEB-0335
国际标识:
2021-083R
轨道中心:
EARTH
卫星名称:
一网星座-0335星
卫星全名:
一网星座-0335星 (ONEWEB-0335 )
卫星状态:
在轨 (已飞行1734 天)
发射日期:
2021-09-14 UTC
国别 :
英国 (GB)
星等 :
--
轨道信息
数据来源 国际轨道数据 AOE轨道数据
星历时间 2026-06-14T06:27:18+0800
13小时前
查看轨道信息
2026-06-14T10:00:00+0800
9小时前
查看轨道信息
半长轴 7587.9km 7587.884km
偏心率 0.0001983 0.0002408
轨道倾角 87.895° 87.894°
近地点辐角 93.140° 94.269°
升交点赤经 320.880° 320.851°
平近点角 266.995° 243.904°
近地点 1208.258km 1207.919km
远地点 1211.268km 1211.575km
周期 109.633分钟 109.633分钟
每日圈数 13.134708 13.13475
详细信息
平衡模式:
三轴稳定
覆盖范围:
全球
运营商:
一网卫星公司
运营商所在国:
英国
制造商(研发单位):
一网卫星公司
制造商所在国:
英国
使用方式:
暂无
卫星简介
OneWeb卫星网络由648颗重约125公斤的微型卫星组成,运行在1200公里的轨道上。 每颗卫星都能够提供至少每秒8千兆位的吞吐量,以使用其高吞吐量的Ku频段有效载荷为家庭和移动平台提供互联网接入。该卫星仍在工作。
2D轨道图
3D轨道图
轨道高度分析图
轨道倾角分析图
轨道综合分析图
查看轨道综合分析图